1500706800.86,782,21.5,74334.5,17.45,-16.89,-17.93,0,*4D
1500706802.08,783,21.5,74336.5,17.49,-16.75,-17.79,0,*47
1500706803.32,784,21.5,74334.8,17.51,-16.37,-17.41,0,*44
1500706804.54,785,21.5,74336.0,17.51,-16.45,-17.49,0,*48
1500706805.78,786,21.5,74332.0,17.55,-16.59,-17.63,0,*4A
1500706807.02,787,21.5,74336.5,17.55,-17.07,-18.41,0,*4E
1500706808.3,788,21.5,74336.0,17.55,-16.27,-17.21,0,*4B
1500706809.53,789,21.5,74338.8,17.59,-15.81,-16.89,0,*4A
1500706810.76,790,21.5,74338.3,17.61,-16.97,-17.97,0,*43
1500706811.98,791,21.5,74340.0,17.61,-17.41,-18.49,0,*44
1500706813.22,792,21.5,74334.3,17.63,-17.63,-18.73,0,*4C
1500706814.46,793,21.5,74334.5,17.61,-19.65,-20.89,0,*49
1500706815.66,794,21.5,74334.8,17.61,-19.03,-20.09,0,*46
1500706816.86,795,21.5,74332.8,17.61,-16.97,-17.87,0,*47
1500706818.08,796,21.5,74338.3,17.61,-16.51,-17.49,0,*4C
1500706819.32,797,21.5,74338.3,17.63,-16.59,-17.55,0,*4A
1500706820.59,798,21.5,74342.5,17.63,-16.65,-17.63,0,*4F
1500706821.82,799,21.5,74340.0,17.65,-17.35,-18.35,0,*40
1500706823.05,800,21.5,74340.0,17.67,-17.63,-18.69,0,*47
1500706824.29,801,21.5,74338.0,17.67,-17.17,-18.17,0,*4C
1500706825.51,802,21.5,74336.8,17.69,-16.37,-17.41,0,*4E
1500706826.73,803,21.5,74342.0,17.69,-16.65,-17.73,0,*49
1500706827.97,804,21.5,74338.5,17.73,-17.11,-18.17,0,*4A
1500706829.21,805,21.5,74338.8,17.73,-17.25,-18.25,0,*4D
1500706830.47,806,21.5,74342.3,17.73,-16.23,-17.25,0,*46
1500706831.7,807,21.5,74342.0,17.73,-15.63,-16.55,0,*46
1500706832.91,808,21.5,74346.3,17.79,-15.43,-16.45,0,*40
1500706834.11,809,21.5,74342.8,17.79,-15.53,-16.59,0,*4D
1500706835.32,810,21.5,74342.5,17.81,-17.83,-19.07,0,*49
1500706836.57,811,21.5,74340.5,17.81,-17.41,-18.45,0,*41
1500706837.79,812,21.5,74338.0,17.83,-16.31,-17.35,0,*4E
1500706839.0,813,21.5,74338.0,17.83,-15.89,-16.93,0,*42
1500706840.22,814,21.5,74332.3,17.85,-15.67,-16.75,0,*4B
1500706841.46,815,21.5,74334.5,17.87,-16.17,-17.17,0,*49
1500706842.69,816,21.5,74332.5,17.87,-16.55,-17.59,0,*46
1500706843.9,817,21.5,74342.0,17.89,-16.03,-16.97,0,*49
1500706845.17,818,21.5,74340.5,17.89,-16.23,-17.17,0,*4D
1500706846.41,819,21.5,74340.8,17.91,-17.11,-18.31,0,*4E
1500706847.63,820,21.5,74340.0,17.95,-17.11,-18.11,0,*42
1500706848.84,821,21.5,74344.0,17.95,-16.79,-17.93,0,*49
1500706850.06,822,21.5,74342.5,17.91,-19.95,-21.23,0,*4D
1500706851.28,823,21.5,74340.8,17.91,-19.99,-21.27,0,*44
1500706852.5,824,21.5,74342.5,17.87,-20.49,-21.77,0,*46
1500706853.75,825,21.5,74344.8,17.85,-19.75,-20.99,0,*41
1500706854.96,826,21.5,74340.3,17.85,-20.09,-21.47,0,*41
1500706856.19,827,21.5,74338.5,17.81,-19.71,-20.89,0,*42
1500706857.39,828,21.5,74338.8,17.79,-18.45,-19.51,0,*43
1500706858.6,829,21.5,74336.0,17.81,-17.31,-18.45,0,*4D
1500706859.84,830,21.5,74334.5,17.81,-17.21,-18.17,0,*43
1500706861.06,831,21.5,74334.3,17.83,-18.41,-19.65,0,*4D
1500706862.29,832,21.5,74334.5,17.83,-17.55,-18.59,0,*4A
1500706863.5,833,21.5,74332.0,17.83,-16.59,-17.63,0,*40
1500706864.72,834,21.5,74332.5,17.83,-16.75,-17.79,0,*42
1500706865.94,835,21.5,74334.5,17.85,-16.55,-17.49,0,*44
1500706867.17,836,21.5,74336.3,17.89,-16.23,-17.31,0,*45
1500706868.39,837,21.5,74338.0,17.89,-16.83,-17.73,0,*48
1500706869.66,838,21.5,74336.0,17.89,-16.13,-17.25,0,*4D
1500706870.87,839,21.5,74332.8,17.91,-16.37,-17.41,0,*41
1500706872.1,840,21.5,74340.3,17.95,-16.03,-17.07,0,*4E
1500706873.29,841,21.5,74340.3,17.91,-16.79,-17.83,0,*4A
1500706874.53,842,21.5,74342.0,17.95,-17.41,-18.55,0,*43
1500706875.71,843,21.5,74342.3,17.95,-15.99,-16.93,0,*41
1500706876.96,844,21.5,74342.0,17.97,-19.13,-20.35,0,*43
1500706878.19,845,21.5,74342.5,17.97,-21.73,-23.09,0,*43
1500706879.42,846,21.5,74342.0,17.91,-22.47,-23.65,0,*48
1500706880.64,847,21.5,74342.5,17.87,-20.53,-21.73,0,*4C
1500706881.85,848,21.5,74338.8,17.83,-20.09,-21.23,0,*4D
1500706883.08,849,21.5,74338.0,17.83,-19.31,-20.43,0,*4A
1500706884.31,850,21.5,74334.0,17.83,-17.93,-18.89,0,*49
1500706885.54,851,21.5,74338.3,17.81,-16.55,-17.69,0,*40
1500706886.77,852,21.5,74340.3,17.81,-17.83,-18.89,0,*48
1500706887.99,853,21.5,74340.8,17.83,-17.97,-19.03,0,*4D
1500706889.23,854,21.5,74340.0,17.85,-17.45,-18.41,0,*44
1500706890.45,855,21.5,74342.0,17.83,-17.03,-18.07,0,*43
1500706891.69,856,21.5,74338.8,17.85,-17.49,-18.55,0,*4F
1500706892.93,857,21.5,74346.5,17.85,-19.85,-21.17,0,*4C
1500706894.2,858,21.5,74346.5,17.85,-21.33,-22.73,0,*44
1500706895.41,859,21.5,74342.8,17.79,-22.07,-23.49,0,*4A
1500706896.61,860,21.5,74340.0,17.79,-18.99,-19.99,0,*4A
1500706897.84,861,21.5,74336.3,17.77,-18.01,-19.07,0,*43
1500706899.09,862,21.5,74340.5,17.79,-17.93,-19.23,0,*4C
1500706900.28,863,21.5,74338.5,17.79,-18.41,-19.71,0,*4A
1500706901.49,864,21.5,74346.5,17.79,-19.13,-20.39,0,*4D
1500706902.74,865,21.5,74344.0,17.77,-19.99,-21.33,0,*4B
1500706903.96,866,21.5,74344.5,17.75,-19.81,-20.89,0,*43
1500706905.16,867,21.5,74342.5,17.75,-20.43,-21.77,0,*46
1500706906.39,868,21.5,74338.8,17.73,-19.51,-20.63,0,*42
1500706907.65,869,21.5,74340.0,17.73,-18.93,-20.09,0,*40
1500706908.84,870,21.5,74340.5,17.69,-19.95,-21.39,0,*46
1500706910.08,871,21.5,74342.5,17.69,-20.49,-21.87,0,*49
1500706911.3,872,21.5,74342.0,17.65,-21.03,-22.27,0,*40
1500706912.53,873,21.5,74336.5,17.61,-21.33,-22.53,0,*45
1500706913.76,874,21.5,74336.8,17.61,-19.95,-21.23,0,*41
1500706915.02,875,21.5,74334.5,17.61,-19.31,-20.49,0,*43
1500706916.24,876,21.5,74338.3,17.61,-19.51,-20.79,0,*45
1500706917.51,877,21.5,74336.3,17.59,-19.61,-20.79,0,*4C
1500706918.78,878,21.5,74340.0,17.59,-19.23,-20.35,0,*4D
1500706920.0,879,21.5,74336.8,17.59,-20.43,-21.77,0,*47
1500706921.23,880,21.5,74334.3,17.57,-19.91,-21.23,0,*4B
1500706922.48,881,21.5,74330.0,17.59,-19.99,-21.23,0,*4C
1500706923.71,882,21.5,74330.0,17.57,-19.99,-21.23,0,*41
1500706924.95,883,21.5,74332.0,17.55,-19.03,-20.19,0,*49
1500706926.18,884,21.5,74328.0,17.53,-19.31,-20.29,0,*4A
1500706927.4,885,21.5,74334.5,17.55,-18.69,-19.75,0,*42
1500706928.62,886,21.5,74332.5,17.55,-20.05,-21.17,0,*4F
1500706929.84,887,21.5,74334.3,17.53,-21.83,-23.13,0,*41
1500706931.06,888,21.5,74334.3,17.49,-22.47,-23.79,0,*42
1500706932.25,889,21.5,74334.3,17.49,-20.59,-21.73,0,*46
1500706933.47,890,21.5,74336.0,17.49,-18.93,-19.91,0,*44
1500706934.72,891,21.5,74336.5,17.49,-18.31,-19.27,0,*40
1500706935.96,892,21.5,74332.5,17.49,-17.59,-18.59,0,*4A
1500706937.2,893,21.5,74334.8,17.51,-16.97,-17.97,0,*4C
1500706938.42,894,21.5,74338.0,17.55,-16.45,-17.35,0,*48
1500706939.7,895,21.5,74336.3,17.55,-16.27,-17.45,0,*4A
1500706940.92,896,21.5,74338.3,17.57,-17.41,-18.45,0,*45
1500706942.14,897,21.5,74338.5,17.59,-19.07,-20.29,0,*47
1500706943.33,898,21.5,74338.3,17.57,-21.63,-22.97,0,*48
1500706944.54,899,21.5,74334.3,17.53,-20.73,-21.97,0,*4E
1500706945.77,900,21.5,74334.3,17.53,-19.17,-20.15,0,*4C
1500706947.0,901,21.5,74336.3,17.53,-19.31,-20.39,0,*47
1500706948.19,902,21.5,74340.8,17.53,-17.35,-18.41,0,*4A
1500706949.39,903,21.5,74334.5,17.53,-17.35,-18.41,0,*4B
1500706950.66,904,21.5,74334.8,17.55,-18.55,-19.57,0,*45
1500706951.88,905,21.5,74336.5,17.55,-17.49,-18.69,0,*4A
1500706953.1,906,21.5,74338.5,17.57,-17.41,-18.45,0,*4D
1500706954.38,907,21.5,74336.3,17.59,-17.25,-18.31,0,*43
1500706955.62,908,21.5,74342.3,17.59,-17.45,-18.69,0,*47
1500706956.87,909,21.5,74340.3,17.57,-18.35,-19.57,0,*4C
1500706958.12,910,21.5,74338.8,17.59,-20.05,-21.23,0,*4A
1500706959.34,911,21.5,74340.0,17.57,-21.87,-23.13,0,*4F
1500706960.57,912,21.5,74338.3,17.53,-23.75,-25.03,0,*40
1500706961.78,913,21.5,74338.3,17.51,-20.25,-21.39,0,*48
1500706963.0,914,21.5,74336.3,17.49,-21.77,-23.19,0,*40
1500706964.25,915,21.5,74338.3,17.49,-24.11,-25.75,0,*48
1500706965.5,916,21.5,74334.0,17.43,-21.17,-22.31,0,*45
1500706966.72,917,21.5,74334.3,17.41,-22.17,-23.39,0,*4C
1500706967.96,918,21.5,74334.3,17.35,-23.99,-25.35,0,*4D
1500706969.19,919,21.5,74334.8,17.33,-24.35,-25.97,0,*43
1500706970.42,920,21.5,74332.5,17.27,-23.69,-24.93,0,*47
1500706971.66,921,21.5,74334.5,17.23,-22.31,-23.59,0,*4F
1500706972.87,922,21.5,74336.0,17.21,-23.23,-24.57,0,*45
1500706974.08,923,21.5,74338.3,17.17,-22.57,-23.95,0,*4A
1500706975.28,924,21.5,74336.8,17.13,-23.75,-25.35,0,*44
1500706976.54,925,21.5,74336.0,17.09,-24.21,-25.71,0,*48
1500706977.75,926,21.5,74338.5,17.09,-24.47,-26.03,0,*4D
1500706978.98,927,21.5,74338.5,17.05,-25.13,-26.55,0,*43
1500706980.26,928,21.5,74338.5,16.97,-24.11,-25.55,0,*46
1500706981.5,929,21.5,74336.5,16.95,-23.33,-24.67,0,*42
1500706982.69,930,21.5,74338.3,16.91,-22.97,-24.35,0,*46
1500706983.91,931,21.5,74338.0,16.91,-23.39,-24.87,0,*4B
1500706985.13,932,21.5,74334.5,16.87,-23.65,-24.97,0,*47
1500706986.37,933,21.5,74336.0,16.85,-24.15,-25.61,0,*4C
1500706987.62,934,21.5,74332.8,16.83,-24.15,-25.29,0,*41
1500706988.86,935,21.5,74336.8,16.77,-23.19,-24.57,0,*48
1500706990.11,936,21.5,74338.0,16.75,-23.85,-25.35,0,*49
1500706991.32,937,21.5,74340.0,16.73,-22.53,-23.99,0,*44
1500706992.54,938,21.5,74338.5,16.71,-25.39,-27.07,0,*41
1500706993.76,939,21.5,74338.0,16.69,-25.39,-26.97,0,*41
1500706994.96,940,21.5,74334.5,16.61,-26.65,-28.37,0,*49
1500706996.18,941,21.5,74330.8,16.55,-26.49,-27.93,0,*40
1500706997.43,942,21.5,74330.3,16.51,-26.55,-28.15,0,*4B
1500706998.68,943,21.5,74334.0,16.49,-24.67,-26.13,0,*48
1500706999.9,944,21.5,74334.0,16.47,-24.97,-26.39,0,*46
1500707001.11,945,21.5,74328.5,16.43,-24.31,-25.65,0,*45
1500707002.33,946,21.5,74322.8,16.41,-25.39,-27.03,0,*4F
1500707003.56,947,21.5,74322.0,16.33,-26.23,-27.67,0,*41
1500707004.78,948,21.5,74324.0,16.29,-25.91,-27.51,0,*4A
1500707006.02,949,21.5,74322.3,16.29,-21.83,-23.13,0,*4E
1500707007.24,950,21.5,74330.8,16.29,-20.09,-21.17,0,*43
1500707008.45,951,21.5,74324.5,16.31,-21.93,-23.09,0,*44
1500707009.67,952,21.5,74330.0,16.31,-19.91,-21.03,0,*46
1500707010.93,953,21.5,74326.0,16.33,-19.71,-20.83,0,*42
1500707012.15,954,21.5,74324.8,16.33,-23.39,-25.09,0,*47
1500707013.41,955,21.5,74326.3,16.29,-24.35,-25.55,0,*4F
1500707014.63,956,21.5,74324.5,16.29,-21.47,-22.67,0,*4A
1500707015.86,957,21.5,74334.0,16.29,-20.93,-22.11,0,*42
1500707017.08,958,21.5,74332.8,16.31,-19.17,-20.35,0,*46
1500707018.32,959,21.5,74330.8,16.31,-17.63,-18.59,0,*4B
1500707019.53,960,21.5,74334.3,16.37,-17.83,-19.03,0,*47
1500707020.75,961,21.5,74332.3,16.41,-17.69,-18.73,0,*45
1500707022.0,962,21.5,74332.3,16.41,-17.79,-18.69,0,*4C
1500707023.22,963,21.5,74332.5,16.47,-16.93,-17.87,0,*41
1500707024.5,964,21.5,74332.5,16.51,-17.21,-18.31,0,*4B
1500707025.72,965,21.5,74334.8,16.53,-17.45,-18.41,0,*4D
1500707026.91,966,21.5,74334.8,16.53,-16.97,-17.73,0,*4E
1500707028.16,967,21.5,74334.8,16.59,-16.97,-17.97,0,*4F
1500707029.38,968,21.5,74336.8,16.63,-16.75,-17.69,0,*44
1500707030.62,969,21.5,74340.0,16.67,-16.27,-17.31,0,*4B
1500707031.84,970,21.5,74336.3,16.67,-17.87,-18.99,0,*45
1500707033.04,971,21.5,74336.3,16.69,-17.11,-18.25,0,*42
1500707034.26,972,21.5,74334.8,16.71,-17.87,-19.03,0,*42
1500707035.45,973,21.5,74334.3,16.73,-17.35,-18.41,0,*4F
1500707036.69,974,21.5,74336.5,16.75,-16.93,-17.97,0,*47
1500707037.97,975,21.5,74332.3,16.81,-16.09,-17.11,0,*40
1500707039.19,976,21.5,74334.0,16.83,-15.85,-16.79,0,*49
1500707040.41,977,21.5,74330.8,16.85,-16.41,-17.49,0,*47
1500707041.66,978,21.5,74334.5,16.85,-19.95,-20.99,0,*47
1500707042.88,979,21.5,74332.3,16.85,-19.91,-20.89,0,*43
1500707044.12,980,21.5,74328.8,16.85,-16.69,-17.49,0,*45
1500707045.35,981,21.5,74334.0,16.87,-17.03,-18.07,0,*4E
1500707046.59,982,21.5,74328.0,16.89,-16.75,-17.79,0,*45
1500707047.87,983,21.5,74328.0,16.89,-16.69,-17.63,0,*42
1500707049.13,984,21.5,74324.5,16.93,-15.89,-16.65,0,*44
1500707050.35,985,21.5,74324.0,16.97,-16.55,-17.49,0,*4C
1500707051.57,986,21.5,74326.5,16.97,-16.97,-18.07,0,*44
1500707052.8,987,21.5,74332.3,16.99,-16.65,-17.69,0,*41
1500707054.03,988,21.5,74332.0,17.01,-17.41,-18.25,0,*4E
1500707055.27,989,21.5,74336.0,17.01,-16.79,-17.79,0,*43
1500707056.49,990,21.5,74336.8,17.07,-15.85,-16.75,0,*40
1500707057.73,991,21.5,74340.0,17.07,-16.13,-17.17,0,*48
1500707058.98,992,21.5,74336.3,17.09,-18.31,-19.41,0,*46
1500707060.19,993,21.5,74338.5,17.09,-18.01,-19.07,0,*46
1500707061.4,994,21.5,74336.3,17.11,-17.31,-18.45,0,*43
1500707062.6,995,21.5,74342.3,17.13,-18.25,-19.47,0,*49
1500707063.82,996,21.5,74342.3,17.13,-19.13,-20.19,0,*4F
1500707065.04,997,21.5,74340.5,17.09,-22.97,-23.95,0,*46
1500707066.28,998,21.5,74336.8,17.05,-23.85,-25.13,0,*4F
1500707067.5,999,21.5,74338.8,16.99,-23.29,-24.57,0,*4D
1500707068.7,1000,21.5,74340.0,16.95,-21.47,-22.67,0,*76
1500707069.92,1001,21.5,74340.3,16.93,-18.83,-20.05,0,*75
1500707071.15,1002,21.5,74336.3,16.93,-18.07,-19.17,0,*73
1500707072.37,1003,21.5,74336.8,16.95,-18.93,-19.99,0,*7F
1500707073.6,1004,21.5,74338.3,16.95,-18.35,-19.37,0,*70
1500707074.81,1005,21.5,74336.0,16.95,-17.11,-18.17,0,*7B
1500707076.03,1006,21.5,74338.8,16.99,-17.73,-18.89,0,*77
1500707077.27,1007,21.5,74340.0,17.01,-18.59,-19.75,0,*73
1500707078.53,1008,21.5,74338.5,16.99,-18.31,-19.31,0,*72
1500707079.78,1009,21.5,74340.8,17.01,-16.65,-17.83,0,*7B
1500707081.05,1010,21.5,74332.5,17.01,-17.21,-18.35,0,*70
1500707082.29,1011,21.5,74338.5,17.01,-16.93,-17.97,0,*7E
1500707083.51,1012,21.5,74334.0,17.07,-16.75,-17.79,0,*73
1500707084.74,1013,21.5,74336.0,17.07,-18.69,-19.85,0,*7C
1500707085.95,1014,21.5,74334.3,17.07,-20.79,-22.03,0,*77
1500707087.19,1015,21.5,74336.8,17.05,-20.05,-21.03,0,*7C
1500707088.38,1016,21.5,74334.3,17.07,-17.87,-18.99,0,*7A
1500707089.6,1017,21.5,74332.8,17.05,-17.69,-18.73,0,*7D
1500707090.83,1018,21.5,74332.3,17.07,-17.45,-18.49,0,*77
1500707092.08,1019,21.5,74330.0,17.07,-17.45,-18.35,0,*7D
1500707093.27,1020,21.5,74330.8,17.07,-18.17,-19.13,0,*7A
1500707094.5,1021,21.5,74332.3,17.09,-16.69,-17.73,0,*7A
1500707095.78,1022,21.5,74334.0,17.11,-16.23,-17.07,0,*7D
1500707097.0,1023,21.5,74334.0,17.13,-16.37,-17.25,0,*7B
1500707098.26,1024,21.5,74332.0,17.15,-16.31,-17.35,0,*7D
1500707099.51,1025,21.5,74334.0,17.15,-16.13,-16.97,0,*75
1500707100.76,1026,21.5,74336.0,17.19,-15.89,-16.79,0,*7A
1500707102.01,1027,21.5,74336.0,17.23,-15.85,-16.89,0,*71
1500707103.26,1028,21.5,74334.8,17.27,-16.55,-17.59,0,*78
1500707104.49,1029,21.5,74336.5,17.27,-16.97,-17.87,0,*74
1500707105.73,1030,21.5,74334.8,17.29,-16.27,-17.17,0,*70
1500707106.96,1031,21.5,74336.5,17.29,-15.95,-16.65,0,*7F
1500707108.2,1032,21.5,74334.5,17.33,-16.23,-17.25,0,*7C
1500707109.44,1033,21.5,74336.3,17.35,-16.27,-17.31,0,*7A
1500707110.72,1034,21.5,74338.5,17.35,-15.81,-16.69,0,*7E
1500707111.92,1035,21.5,74340.3,17.37,-15.53,-16.41,0,*78
1500707113.15,1036,21.5,74340.0,17.37,-18.49,-19.57,0,*75
1500707114.38,1037,21.5,74336.3,17.35,-21.73,-22.93,0,*75
1500707115.62,1038,21.5,74338.3,17.33,-21.97,-23.29,0,*76
1500707116.81,1039,21.5,74338.5,17.29,-21.09,-22.37,0,*75
1500707118.03,1040,21.5,74342.5,17.23,-20.25,-21.47,0,*7A
1500707119.26,1041,21.5,74338.8,17.21,-19.65,-20.73,0,*71
1500707120.48,1042,21.5,74338.3,17.21,-19.91,-21.03,0,*7F
1500707121.7,1043,21.5,74340.8,17.17,-22.31,-23.79,0,*76
1500707122.95,1044,21.5,74338.3,17.15,-21.93,-23.03,0,*75
1500707124.16,1045,21.5,74342.3,17.13,-19.75,-20.89,0,*70
1500707125.39,1046,21.5,74336.8,17.13,-19.75,-20.83,0,*79
1500707126.65,1047,21.5,74338.5,17.11,-19.99,-21.23,0,*73
1500707127.9,1048,21.5,74338.3,17.09,-21.03,-22.31,0,*7D
1500707129.15,1049,21.5,74334.8,17.05,-19.95,-21.03,0,*76
1500707130.38,1050,21.5,74332.8,17.07,-19.13,-20.19,0,*78
1500707131.57,1051,21.5,74330.5,17.07,-19.99,-21.09,0,*7B
1500707132.82,1052,21.5,74332.8,17.05,-22.47,-23.75,0,*78
1500707134.06,1053,21.5,74334.3,16.99,-21.67,-22.93,0,*75
1500707135.29,1054,21.5,74332.8,16.99,-20.59,-21.87,0,*78
1500707136.52,1055,21.5,74338.3,16.95,-21.27,-22.53,0,*77
1500707137.75,1056,21.5,74332.8,16.93,-20.09,-21.33,0,*7A
1500707139.03,1057,21.5,74336.5,16.93,-19.65,-20.83,0,*71
1500707140.26,1058,21.5,74336.5,16.95,-19.91,-21.23,0,*78
1500707141.48,1059,21.5,74334.8,16.91,-20.53,-21.73,0,*7C
1500707142.69,1060,21.5,74334.3,16.91,-21.73,-23.09,0,*7A
1500707143.91,1061,21.5,74334.8,16.87,-22.67,-24.11,0,*74
1500707145.1,1062,21.5,74330.8,16.83,-24.97,-26.45,0,*79
1500707146.38,1063,21.5,74328.8,16.77,-24.15,-25.55,0,*7B
1500707147.6,1064,21.5,74328.5,16.73,-23.69,-24.97,0,*7B
1500707148.88,1065,21.5,74328.3,16.71,-22.77,-24.25,0,*7F
1500707150.1,1066,21.5,74328.0,16.65,-22.83,-23.99,0,*72
1500707151.32,1067,21.5,74328.0,16.65,-20.99,-21.93,0,*72
1500707152.54,1068,21.5,74330.0,16.65,-20.79,-21.77,0,*79
1500707153.77,1069,21.5,74332.0,16.65,-18.83,-19.85,0,*70
1500707155.02,1070,21.5,74332.3,16.65,-18.35,-19.41,0,*7D
1500707156.24,1071,21.5,74330.0,16.69,-18.93,-20.09,0,*7A
1500707157.49,1072,21.5,74332.5,16.69,-18.59,-19.65,0,*7F
1500707158.71,1073,21.5,74328.8,16.69,-18.45,-19.61,0,*77
1500707159.91,1074,21.5,74330.5,16.69,-19.99,-21.09,0,*75
1500707161.13,1075,21.5,74324.8,16.69,-19.17,-20.15,0,*7E
1500707162.37,1076,21.5,74324.5,16.71,-17.49,-18.59,0,*72
1500707163.6,1077,21.5,74328.3,16.71,-17.35,-18.45,0,*75
1500707164.83,1078,21.5,74330.0,16.75,-17.35,-18.49,0,*72
1500707166.04,1079,21.5,74328.8,16.73,-17.79,-18.83,0,*7B
1500707167.32,1080,21.5,74334.5,16.81,-17.25,-18.31,0,*70
1500707168.58,1081,21.5,74330.5,16.81,-16.83,-17.97,0,*7F
1500707169.8,1082,21.5,74332.5,16.81,-17.49,-18.45,0,*7B
1500707171.06,1083,21.5,74332.8,16.87,-16.65,-17.55,0,*7D
1500707172.3,1084,21.5,74334.0,16.87,-16.23,-17.17,0,*7E
1500707173.58,1085,21.5,74334.8,16.89,-16.51,-17.59,0,*7E
1500707174.84,1086,21.5,74334.5,16.91,-17.07,-17.97,0,*74
1500707176.09,1087,21.5,74332.8,16.93,-15.89,-16.75,0,*7E
1500707177.37,1088,21.5,74334.3,16.97,-16.13,-17.79,0,*78
1500707178.59,1089,21.5,74334.0,16.97,-17.87,-18.99,0,*74
1500707179.84,1090,21.5,74334.3,16.97,-17.45,-18.45,0,*73
1500707181.06,1091,21.5,74336.5,16.97,-18.07,-19.07,0,*7C
1500707182.26,1092,21.5,74334.8,16.99,-18.25,-19.17,0,*70
1500707183.51,1093,21.5,74336.8,16.97,-18.35,-19.37,0,*7C
1500707184.74,1094,21.5,74338.0,16.97,-18.17,-19.37,0,*7B
1500707185.96,1095,21.5,74336.8,16.99,-18.73,-19.85,0,*7F
1500707187.19,1096,21.5,74336.0,16.99,-18.31,-19.37,0,*73
1500707188.43,1097,21.5,74338.5,17.01,-18.21,-19.31,0,*75
1500707189.64,1098,21.5,74334.0,16.99,-18.41,-19.51,0,*7A
1500707190.87,1099,21.5,74332.3,16.99,-19.61,-21.17,0,*71
1500707192.14,1100,21.5,74334.0,16.97,-20.19,-21.27,0,*78
1500707193.35,1101,21.5,74334.8,16.95,-19.37,-20.63,0,*7C
1500707194.57,1102,21.5,74334.3,16.95,-20.19,-21.47,0,*7E
1500707195.8,1103,21.5,74334.8,16.91,-22.31,-23.43,0,*75
1500707197.06,1104,21.5,74330.8,16.89,-21.93,-23.03,0,*74
1500707198.34,1105,21.5,74334.8,16.89,-20.49,-21.53,0,*74
1500707199.57,1106,21.5,74332.0,16.85,-19.17,-20.25,0,*7A
1500707200.81,1107,21.5,74332.5,16.85,-17.79,-18.69,0,*7E
1500707202.07,1108,21.5,74330.8,16.85,-17.59,-18.59,0,*70
1500707203.33,1109,21.5,74334.8,16.89,-16.75,-17.59,0,*7D
1500707204.59,1110,21.5,74332.5,16.89,-19.13,-20.19,0,*7A
1500707205.87,1111,21.5,74328.3,16.89,-19.57,-20.79,0,*7D
1500707207.13,1112,21.5,74330.0,16.89,-19.23,-20.29,0,*78
1500707208.34,1113,21.5,74334.3,16.87,-19.13,-20.05,0,*7A
1500707209.56,1114,21.5,74332.5,16.89,-18.07,-19.07,0,*7F
1500707210.79,1115,21.5,74330.0,16.89,-18.79,-19.91,0,*78
1500707212.03,1116,21.5,74334.3,16.89,-19.13,-20.43,0,*73
1500707213.28,1117,21.5,74334.0,16.89,-18.21,-19.41,0,*7A
1500707214.54,1118,21.5,74332.8,16.89,-18.93,-19.91,0,*71
1500707215.79,1119,21.5,74334.5,16.89,-20.79,-22.07,0,*78
1500707217.02,1120,21.5,74334.8,16.87,-21.23,-22.97,0,*7B
1500707218.27,1121,21.5,74332.0,16.83,-24.67,-26.13,0,*73
1500707219.47,1122,21.5,74334.8,16.73,-24.51,-25.91,0,*73
1500707220.71,1123,21.5,74334.0,16.69,-24.21,-25.49,0,*7B
1500707221.93,1124,21.5,74334.0,16.69,-23.59,-25.03,0,*7A
1500707223.15,1125,21.5,74330.8,16.65,-22.37,-23.65,0,*78
1500707224.38,1126,21.5,74334.3,16.61,-21.53,-22.87,0,*73
1500707225.61,1127,21.5,74338.3,16.59,-21.39,-22.63,0,*7F
1500707226.89,1128,21.5,74334.3,16.59,-21.83,-23.03,0,*76
1500707228.14,1129,21.5,74330.8,16.55,-20.39,-21.57,0,*78
1500707229.36,1130,21.5,74332.3,16.55,-18.83,-19.99,0,*73
1500707230.63,1131,21.5,74330.5,16.59,-20.35,-21.53,0,*75
1500707231.88,1132,21.5,74332.5,16.55,-20.53,-21.73,0,*78
1500707233.1,1133,21.5,74328.3,16.55,-19.99,-21.43,0,*76
1500707234.3,1134,21.5,74330.8,16.53,-21.43,-22.67,0,*7E
1500707235.49,1135,21.5,74328.8,16.53,-21.13,-22.27,0,*7E
1500707236.73,1136,21.5,74328.5,16.51,-19.03,-20.09,0,*7B
1500707237.93,1137,21.5,74332.5,16.53,-18.07,-19.17,0,*78
1500707239.13,1138,21.5,74332.0,16.53,-18.11,-19.17,0,*70
1500707240.37,1139,21.5,74332.0,16.59,-18.01,-19.03,0,*7F
1500707241.63,1140,21.5,74336.0,16.59,-18.21,-19.41,0,*75
1500707242.82,1141,21.5,74334.0,16.61,-18.83,-19.99,0,*72
1500707244.08,1142,21.5,74336.8,16.63,-21.53,-22.93,0,*76
1500707245.33,1143,21.5,74338.8,16.55,-23.19,-24.47,0,*71
1500707246.62,1144,21.5,74336.5,16.51,-22.47,-23.85,0,*71
1500707247.87,1145,21.5,74330.8,16.47,-22.77,-24.05,0,*7B
1500707249.12,1146,21.5,74332.5,16.45,-23.23,-24.67,0,*7E
1500707250.36,1147,21.5,74328.3,16.43,-21.93,-23.23,0,*77
1500707251.56,1148,21.5,74330.0,16.39,-22.07,-23.43,0,*7D
1500707252.79,1149,21.5,74328.3,16.39,-21.33,-22.53,0,*78
1500707253.99,1150,21.5,74330.3,16.39,-19.71,-21.09,0,*71
1500707255.24,1151,21.5,74324.0,16.39,-20.79,-21.87,0,*74
1500707256.48,1152,21.5,74322.0,16.39,-19.95,-21.03,0,*73
1500707257.71,1153,21.5,74316.0,16.39,-17.97,-18.73,0,*73
1500707258.99,1154,21.5,74310.0,16.41,-16.51,-17.41,0,*7E
1500707260.24,1155,21.5,74312.0,16.45,-16.69,-17.79,0,*7B
1500707261.47,1156,21.5,74316.5,16.45,-17.45,-18.49,0,*7B
1500707262.71,1157,21.5,74316.8,16.49,-17.25,-18.11,0,*7D
1500707263.96,1158,21.5,74316.0,16.51,-16.89,-17.79,0,*7D
1500707265.19,1159,21.5,74330.0,16.53,-16.55,-17.45,0,*70
1500707266.42,1160,21.5,74332.3,16.55,-16.41,-17.35,0,*7E
1500707267.68,1161,21.5,74334.5,16.61,-17.25,-18.31,0,*70
1500707268.9,1162,21.5,74332.5,16.61,-18.11,-19.31,0,*7A
1500707270.12,1163,21.5,74330.5,16.63,-17.83,-19.03,0,*7C
1500707271.37,1164,21.5,74332.8,16.63,-19.37,-20.53,0,*75
1500707272.59,1165,21.5,74332.5,16.63,-18.73,-19.75,0,*7B
1500707273.79,1166,21.5,74334.8,16.65,-18.07,-19.13,0,*7D
1500707275.07,1167,21.5,74332.5,16.63,-17.11,-18.01,0,*70
1500707276.28,1168,21.5,74328.3,16.65,-16.27,-17.31,0,*71
1500707277.51,1169,21.5,74336.8,16.69,-16.79,-17.79,0,*7B
1500707278.73,1170,21.5,74338.8,16.71,-16.59,-17.69,0,*79
1500707279.95,1171,21.5,74336.3,16.69,-20.29,-21.53,0,*7F
1500707281.2,1172,21.5,74334.5,16.67,-22.97,-24.25,0,*71
1500707282.43,1173,21.5,74332.3,16.65,-19.41,-20.39,0,*78
1500707283.66,1174,21.5,74326.5,16.65,-18.69,-19.61,0,*73
1500707284.92,1175,21.5,74330.8,16.67,-17.45,-18.49,0,*7A
1500707286.14,1176,21.5,74328.0,16.65,-16.83,-17.79,0,*7C
1500707287.36,1177,21.5,74328.5,16.67,-16.93,-17.73,0,*74
1500707288.59,1178,21.5,74328.8,16.71,-16.97,-18.11,0,*73
1500707289.83,1179,21.5,74334.5,16.71,-17.49,-18.59,0,*7C
1500707291.02,1180,21.5,74338.5,16.73,-17.31,-18.25,0,*7C
1500707292.24,1181,21.5,74334.0,16.73,-16.75,-17.63,0,*71
1500707293.52,1182,21.5,74336.5,16.77,-16.51,-17.45,0,*74
1500707294.8,1183,21.5,74334.8,16.81,-16.65,-17.55,0,*7A
1500707296.05,1184,21.5,74336.3,16.83,-16.27,-17.21,0,*7A
1500707297.3,1185,21.5,74338.8,16.85,-15.85,-16.75,0,*76
1500707298.55,1186,21.5,74336.5,16.85,-17.45,-18.65,0,*74
1500707299.78,1187,21.5,74336.3,16.87,-18.93,-20.05,0,*7E
1500707300.98,1188,21.5,74338.8,16.87,-18.69,-19.75,0,*79
1500707302.23,1189,21.5,74340.3,16.85,-18.41,-19.41,0,*77
1500707303.44,1190,21.5,74336.8,16.83,-18.65,-19.75,0,*78
1500707304.66,1191,21.5,74336.8,16.85,-19.47,-20.63,0,*73
1500707305.9,1192,21.5,74336.8,16.85,-19.13,-20.09,0,*7D
1500707307.12,1193,21.5,74338.8,16.83,-18.89,-19.95,0,*77
1500707308.39,1194,21.5,74338.5,16.83,-19.27,-20.49,0,*7E
1500707309.65,1195,21.5,74332.3,16.83,-19.27,-20.35,0,*74
1500707310.85,1196,21.5,74332.5,16.83,-18.11,-19.17,0,*79
1500707312.1,1197,21.5,74334.5,16.83,-16.31,-17.21,0,*7F
1500707313.39,1198,21.5,74330.8,16.85,-16.13,-17.07,0,*72
1500707314.64,1199,21.5,74326.3,16.87,-16.09,-17.03,0,*7E